EW8242 Weather Reports


Display with metric or nautical units.
time (UTC)temp
F
wind
direction
speed
MPH
gust
MPH
rain 1hr
in
rain 24hr
in
rain mn
in
humidity
%
barometer
mb
20210308212844 44 0 0.0 0.0 0.00 0.00 0.00 78 1001.8
20210308211938 44 0 0.0 0.0 0.00 0.00 0.00 79 1001.9
20210308210926 44 0 0.0 0.0 0.00 0.00 0.00 79 1001.7
20210308210112 44 0 0.0 0.0 0.00 0.00 0.00 79 1001.8
20210308205556 44 0 0.0 0.0 0.00 0.00 0.00 79 1001.7
20210308204226 44 0 0.0 0.0 0.00 0.00 0.00 78 1001.7
20210308203326 44 0 0.0 0.0 0.00 0.00 0.00 78 1001.7
20210308202848 44 0 0.0 0.0 0.00 0.00 0.00 77 1001.5
20210308201552 44 0 0.0 0.0 0.00 0.00 0.00 77 1001.6
20210308200629 44 0 0.0 0.0 0.00 0.00 0.00 77 1001.5
20210308195800 44 0 0.0 0.0 0.00 0.00 0.00 77 1001.5
20210308194833 44 0 0.0 0.0 0.00 0.00 0.00 77 1001.6
20210308193926 44 0 0.0 0.0 0.00 0.00 0.00 78 1001.5
20210308193030 44 0 0.0 0.0 0.00 0.00 0.00 78 1001.4
20210308192319 44 0 0.0 0.0 0.00 0.00 0.00 78 1001.3
20210308191225 44 0 0.0 0.0 0.00 0.00 0.00 77 1001.2
20210308190326 44 0 0.0 0.0 0.00 0.00 0.00 77 1001.2
20210308185831 44 0 0.0 0.0 0.00 0.00 0.00 76 1001.3
20210308184534 44 0 0.0 0.0 0.00 0.00 0.00 77 1001.3
20210308183628 44 0 0.0 0.0 0.00 0.00 0.00 75 1001.2
20210308182829 44 0 0.0 0.0 0.00 0.00 0.00 75 1001.0
20210308181835 44 0 0.0 0.0 0.00 0.00 0.00 74 1000.8
20210308180930 45 0 0.0 0.0 0.00 0.00 0.00 71 1000.8
20210308180025 46 0 0.0 0.0 0.00 0.00 0.00 69 1000.7
20210308175716 47 0 0.0 0.0 0.00 0.00 0.00 67 1000.7
20210308174235 47 0 0.0 0.0 0.00 0.00 0.00 65 1000.5
20210308173356 48 270 0.0 1.0 0.00 0.00 0.00 65 1000.1
20210308172920 48 270 0.0 1.0 0.00 0.00 0.00 65 1000.2
20210308171527 48 0 0.0 0.0 0.00 0.00 0.00 64 1000.1
20210308170630 49 0 0.0 0.0 0.00 0.00 0.00 62 999.9
20210308165732 49 0 0.0 0.0 0.00 0.00 0.00 61 999.8
20210308164842 50 203 0.0 1.0 0.00 0.00 0.00 61 999.8
20210308163926 50 225 0.0 1.0 0.00 0.00 0.00 59 999.9
20210308163029 51 225 0.0 1.0 0.00 0.00 0.00 58 999.8
20210308162244 51 285 0.0 5.0 0.00 0.00 0.00 57 999.5
20210308161225 52 288 2.0 5.0 0.00 0.00 0.00 54 999.6
20210308160325 53 331 0.0 2.0 0.00 0.00 0.00 53 999.7
20210308155721 53 285 0.0 2.0 0.00 0.00 0.00 52 999.5
20210308154533 53 254 0.0 6.0 0.00 0.00 0.00 52 999.7
20210308153626 54 276 2.0 6.0 0.00 0.00 0.00 51 999.6
20210308152820 54 302 2.0 8.0 0.00 0.00 0.00 49 999.7
20210308151851 54 333 1.0 7.0 0.00 0.00 0.00 49 999.4
20210308150928 55 230 0.0 5.0 0.00 0.00 0.00 48 999.4
20210308150058 55 273 0.0 5.0 0.00 0.00 0.00 48 999.4
20210308145623 56 356 0.0 3.0 0.00 0.00 0.00 47 999.5
20210308144226 57 8 0.0 4.0 0.00 0.00 0.00 45 999.7
20210308143327 56 213 0.0 4.0 0.00 0.00 0.00 45 999.7
20210308142802 57 311 0.0 7.0 0.00 0.00 0.00 45 999.9
20210308141539 58 242 0.0 6.0 0.00 0.00 0.00 43 999.8
20210308140625 56 310 0.0 8.0 0.00 0.00 0.00 46 1000.0
20210308140141 56 243 0.0 8.0 0.00 0.00 0.00 45 999.9
20210308135120 57 336 0.0 4.0 0.00 0.00 0.00 45 1000.1
20210308133931 56 293 0.0 6.0 0.00 0.00 0.00 44 1000.3
20210308133221 56 271 0.0 5.0 0.00 0.00 0.00 45 1000.2
20210308132728 56 285 0.0 4.0 0.00 0.00 0.00 44 1000.2
20210308131225 56 324 0.0 10.0 0.00 0.00 0.00 45 1000.4
20210308130333 56 334 2.0 6.0 0.00 0.00 0.00 45 1000.6
20210308130104 55 336 2.0 10.0 0.00 0.00 0.00 48 1000.6
20210308124526 56 341 5.0 8.0 0.00 0.00 0.00 47 1000.8
20210308123634 54 333 4.0 7.0 0.00 0.00 0.00 47 1000.9
20210308122848 55 272 4.0 7.0 0.00 0.00 0.00 48 1001.2
20210308120924 55 303 0.0 8.0 0.00 0.00 0.00 45 1001.3
20210308120219 56 242 0.0 5.0 0.00 0.00 0.00 45 1001.4
20210308115738 55 276 0.0 4.0 0.00 0.00 0.00 47 1001.4
20210308114224 54 294 0.0 6.0 0.00 0.00 0.00 48 1001.5
20210308113352 54 249 1.0 5.0 0.00 0.00 0.00 48 1001.5
20210308112956 54 275 0.0 3.0 0.00 0.00 0.00 47 1001.7
20210308111604 55 250 0.0 6.0 0.00 0.00 0.00 46 1001.4
20210308110625 56 0 0.0 0.0 0.00 0.00 0.00 46 1001.9
20210308110121 55 208 0.0 2.0 0.00 0.00 0.00 48 1001.5
20210308105336 53 335 0.0 6.0 0.00 0.00 0.00 50 1001.8
20210308103924 51 19 0.0 7.0 0.00 0.00 0.00 51 1001.7
20210308103111 51 41 0.0 6.0 0.00 0.00 0.00 54 1001.9
20210308102725 51 54 2.0 5.0 0.00 0.00 0.00 54 1001.8
20210308101234 51 1 0.0 3.0 0.00 0.00 0.00 53 1001.8
20210308100639 50 6 0.0 4.0 0.00 0.00 0.00 54 1002.0
20210308100049 50 0 0.0 0.0 0.00 0.00 0.00 54 1002.1
20210308094533 50 0 0.0 0.0 0.00 0.00 0.00 54 1002.1
20210308093624 49 0 0.0 0.0 0.00 0.00 0.00 56 1002.2
20210308093035 49 0 0.0 0.0 0.00 0.00 0.00 55 1002.3
20210308092057 49 1 0.0 2.0 0.00 0.00 0.00 54 1002.2
20210308091048 48 1 0.0 2.0 0.00 0.00 0.00 55 1002.4
20210308090202 48 1 0.0 2.0 0.00 0.00 0.00 55 1002.3
20210308085650 48 46 0.0 1.0 0.00 0.00 0.00 55 1002.2
20210308084225 49 0 0.0 0.0 0.00 0.00 0.00 54 1002.4
20210308083745 49 45 0.0 1.0 0.00 0.00 0.00 53 1002.4
20210308083234 51 0 0.0 0.0 0.00 0.00 0.00 52 1002.4
20210308081529 50 0 0.0 0.0 0.00 0.00 0.00 63 1002.4
20210308080632 46 0 0.0 0.0 0.00 0.00 0.00 63 1002.4
20210308075825 45 0 0.0 0.0 0.00 0.00 0.00 68 1002.7
20210308074833 44 0 0.0 0.0 0.00 0.00 0.00 73 1002.4
20210308073927 42 0 0.0 0.0 0.00 0.00 0.00 76 1002.6
20210308073030 40 0 0.0 0.0 0.00 0.00 0.00 81 1002.4
20210308072228 39 0 0.0 0.0 0.00 0.00 0.00 86 1002.6
20210308071229 38 0 0.0 0.0 0.00 0.00 0.00 93 1002.5
20210308070329 37 0 0.0 0.0 0.00 0.00 0.00 93 1002.2
20210308065813 35 0 0.0 0.0 0.00 0.00 0.00 94 1002.3
20210308064533 33 0 0.0 0.0 0.00 0.00 0.00 96 1002.3
20210308063630 33 0 0.0 0.0 0.00 0.00 0.00 96 1002.3
20210308062838 32 0 0.0 0.0 0.00 0.00 0.00 96 1002.3
20210308062031 31 0 0.0 0.0 0.00 0.00 0.00 96 1002.3
20210308060926 31 0 0.0 0.0 0.00 0.00 0.00 95 1002.1
20210308060129 31 0 0.0 0.0 0.00 0.00 0.00 95 1002.1
20210308055432 31 0 0.0 0.0 0.00 0.00 0.00 95 1001.9
20210308054229 31 0 0.0 0.0 0.00 0.00 0.00 94 1002.0
20210308053523 31 0 0.0 0.0 0.00 0.00 0.00 94 1001.8
20210308052941 31 0 0.0 0.0 0.00 0.00 0.00 94 1001.9
20210308051525 32 0 0.0 0.0 0.00 0.00 0.00 93 1001.8
20210308050624 32 0 0.0 0.0 0.00 0.00 0.00 93 1001.8
20210308050029 32 0 0.0 0.0 0.00 0.00 0.00 93 1001.9
20210308044954 32 0 0.0 0.0 0.00 0.00 0.00 93 1001.8
20210308043927 33 0 0.0 0.0 0.00 0.00 0.00 94 1001.8
20210308043209 33 0 0.0 0.0 0.00 0.00 0.00 94 1001.9
20210308042447 33 0 0.0 0.0 0.00 0.00 0.00 93 1001.8
20210308041229 33 0 0.0 0.0 0.00 0.00 0.00 94 1001.9
20210308040323 33 0 0.0 0.0 0.00 0.00 0.00 94 1002.0
20210308035827 32 0 0.0 0.0 0.00 0.00 0.00 93 1001.9
20210308034523 32 0 0.0 0.0 0.00 0.00 0.00 93 1002.1
20210308033623 33 0 0.0 0.0 0.00 0.00 0.00 93 1001.9
20210308032742 33 0 0.0 0.0 0.00 0.00 0.00 94 1002.0
20210308031851 33 0 0.0 0.0 0.00 0.00 0.00 94 1002.0
20210308030923 33 0 0.0 0.0 0.00 0.00 0.00 94 1002.0
20210308030025 33 0 0.0 0.0 0.00 0.00 0.00 94 1002.1
20210308025404 32 0 0.0 0.0 0.00 0.00 0.00 93 1002.0
20210308024227 33 0 0.0 0.0 0.00 0.00 0.00 93 1002.2
20210308023323 33 0 0.0 0.0 0.00 0.00 0.00 93 1002.2
20210308022854 33 0 0.0 0.0 0.00 0.00 0.00 93 1002.3
20210308021534 33 0 0.0 0.0 0.00 0.00 0.00 92 1002.4
20210308020633 32 0 0.0 0.0 0.00 0.00 0.00 91 1002.6
20210308015844 32 0 0.0 0.0 0.00 0.00 0.00 91 1002.5
20210308015022 33 0 0.0 0.0 0.00 0.00 0.00 91 1002.8
20210308013924 33 0 0.0 0.0 0.00 0.00 0.00 91 1002.7
20210308013129 33 0 0.0 0.0 0.00 0.00 0.00 91 1003.2
20210308012544 33 0 0.0 0.0 0.00 0.00 0.00 90 1003.0
20210308011222 33 0 0.0 0.0 0.00 0.00 0.00 90 1003.2
20210308010349 34 0 0.0 0.0 0.00 0.00 0.00 89 1003.2
20210308010045 34 0 0.0 0.0 0.00 0.00 0.00 90 1003.5
20210308004633 34 0 0.0 0.0 0.00 0.00 0.00 90 1003.3
20210308003650 34 0 0.0 0.0 0.00 0.00 0.00 90 1003.4
20210308003056 34 0 0.0 0.0 0.00 0.00 0.00 89 1003.5
20210308001920 34 0 0.0 0.0 0.00 0.00 0.00 89 1003.5
20210308001148 36 0 0.0 0.0 0.00 0.00 0.00 89 1003.5
20210308000624 36 0 0.0 0.0 0.00 0.00 0.00 89 1003.6
20210307235857 36 0 0.0 0.0 0.00 0.00 0.00 88 1003.7
20210307234223 35 0 0.0 0.0 0.00 0.00 0.00 89 1003.7
20210307233414 36 0 0.0 0.0 0.00 0.00 0.00 88 1003.9
20210307233102 36 0 0.0 0.0 0.00 0.00 0.00 89 1004.0
20210307231525 36 0 0.0 0.0 0.00 0.00 0.00 89 1003.9
20210307230622 36 0 0.0 0.0 0.00 0.00 0.00 89 1004.1
20210307230028 36 0 0.0 0.0 0.00 0.00 0.00 89 1004.2
20210307225243 35 0 0.0 0.0 0.00 0.00 0.00 89 1004.0
20210307223926 35 0 0.0 0.0 0.00 0.00 0.00 89 1004.2
20210307223256 36 0 0.0 0.0 0.00 0.00 0.00 88 1004.4
20210307222917 36 0 0.0 0.0 0.00 0.00 0.00 88 1004.3
20210307221226 36 0 0.0 0.0 0.00 0.00 0.00 87 1004.4
20210307220323 36 0 0.0 0.0 0.00 0.00 0.00 87 1004.3
20210307215649 36 181 0.0 2.0 0.00 0.00 0.00 87 1004.3
20210307214532 36 181 0.0 2.0 0.00 0.00 0.00 87 1004.4
20210307213804 36 0 0.0 0.0 0.00 0.00 0.00 87 1004.5
20210307213317 36 0 0.0 0.0 0.00 0.00 0.00 86 1004.3